Temp
67 66 69 69 69 65 64 66 63 64 68 65 66 66 66 64 63 62 62 63 64 64 61 62 61 62 60 61 60 61 59 60 57 58 59 60 60 60 61 61 62 61 60
67 67 70 69 64 64 63 64 64 64 66 67 68 70 67 65 64 63 63 64 64 62 61 63 61 62 61 62 61 59 59 60 58 56 58 59 59 60 60 60 60 60 60
69 70 69 68 63 63 64 67 64 65 66 69 68 67 66 65 64 63 63 64 63 62 62 61 61 62 61 62 62 60 59 60 60 58 57 59 59 60 59 60 58 58 59
72 70 68 64 63 63 65 64 68 66 66 69 69 69 66 66 65 66 66 63 62 61 60 62 62 62 61 60 60 60 59 58 59 57 57 58 58 59 59 58 57 58 58
72 70 68 64 64 64 66 65 66 67 68 70 69 66 64 63 62 62 64 62 61 61 61 61 61 62 60 60 60 60 59 59 58 57 57 57 57 57 57 58 57 58 58
72 70 69 69 69 68 67 67 65 67 68 69 68 64 60 63 49 52 58 62 62 62 60 59 60 59 56 55 56 56 60 59 57 57 57 56 57 57 57 57 57 56 54
71 71 71 69 67 68 70 68 65 66 67 66 62 60 58 55 47 48 52 62 62 61 62 62 62 60 59 58 53 54 53 54 59 62 58 57 57 57 59 57 57 56 56
73 73 71 70 67 68 69 66 64 62 62 61 62 60 58 55 48 47 53 62 61 61 61 62 62 60 60 62 61 60 60 61 60 61 60 59 60 61 61 62 58 56 59
74 72 72 71 68 69 67 63 62 62 62 62 61 59 58 54 48 46 58 62 61 61 62 63 62 61 50 51 62 60 59 58 52 51 51 51 49 52 59 61 56 58 54
75 73 73 71 71 69 67 62 62 62 63 64 62 60 56 56 49 46 57 62 60 59 59 59 53 57 48 50 62 60 58 58 58 58 57 54 54 53 52 57 57 57 55
78 76 72 70 70 65 63 62 62 62 62 61 61 60 59 57 53 47 52 62 61 60 59 59 57 48 47 48 53 62 59 59 55 58 57 54 54 55 56 56 59 58 55
75 74 69 68 72 68 64 62 62 62 60 59 59 59 59 58 52 47 47 55 57 61 59 57 52 46 46 47 54 45 48 54 61 59 57 55 54 55 56 58 60 60 60
73 71 70 69 69 66 64 62 62 61 61 60 60 59 58 58 55 48 48 53 53 59 60 52 45 46 45 46 45 46 50 60 60 58 56 56 58 59 59 59 60 60 59
69 71 67 68 66 65 65 64 62 61 60 61 61 59 58 58 57 57 55 56 51 53 49 50 51 52 51 52 52 54 62 62 61 60 58 58 59 58 57 59 57 56 55
71 71 67 68 68 64 62 60 63 62 67 64 65 63 60 58 59 56 57 61 60 57 55 56 55 56 56 57 58 59 60 62 61 61 59 60 61 59 58 59 57 55 53
70 71 69 68 68 66 61 57 45 46 49 54 54 61 64 57 49 49 51 49 48 48 58 57 56 56 59 59 59 60 61 59 62 63 62 62 62 62 60 59 58 55 53
70 69 69 67 68 65 63 61 58 55 47 45 48 52 54 53 48 48 46 46 46 50 58 58 58 59 60 60 60 62 62 64 62 66 66 64 65 64 57 62 61 57 55
68 57 70 66 70 66 66 66 63 61 59 58 50 50 48 47 48 46 43 47 54 53 59 59 60 60 62 62 63 64 64 61 62 62 62 66 65 65 61 61 61 59 56
70 69 69 69 68 69 67 66 67 63 63 59 53 49 43 41 43 43 45 63 62 61 59 61 62 63 63 66 66 66 64 62 62 61 60 61 64 61 61 61 61 51 51
74 62 64 69 68 69 68 70 66 67 65 62 60 58 49 49 52 52 52 61 63 64 64 63 63 62 68 68 65 68 64 60 63 64 62 61 63 63 61 62 61 60 57
75 67 65 67 68 66 70 65 68 68 68 66 64 60 47 60 60 59 59 60 63 64 65 65 66 65 63 63 68 66 66 67 65 66 66 65 62 60 61 61 60 60 55
76 75 68 73 71 70 66 69 66 67 70 69 68 62 42 64 63 62 62 63 64 65 62 66 67 68 67 65 63 65 67 65 62 62 64 66 66 63 59 59 59 56 50
76 75 74 72 72 65 64 69 70 67 68 69 72 66 56 64 65 65 64 64 64 65 67 66 62 67 70 69 66 66 66 68 68 68 65 63 63 64 62 59 59 54 50
70 72 74 74 74 73 72 65 69 62 69 69 67 65 62 64 66 67 67 67 66 66 67 68 69 69 67 65 69 73 71 66 67 69 67 66 65 58 63 58 58 55 51
69 68 68 71 74 71 72 68 69 70 71 73 69 65 66 66 67 69 69 69 69 68 68 68 69 69 69 70 71 67 61 45 65 58 67 65 65 62 64 62 57 52 46
65 67 68 68 69 74 73 73 69 70 71 73 72 67 66 68 69 69 70 70 70 71 71 70 71 70 70 71 71 60 46 45 50 45 66 66 64 63 61 60 56 51 46
MSLP
1003.63 1004.09 1004.41 1004.79 1005.14 1005.67 1005.95 1006.09 1006.40 1006.54 1006.61 1006.82 1006.80 1006.94 1006.99 1007.10 1007.22 1007.21 1007.28 1007.27 1007.30 1007.42 1007.80 1007.94 1008.04 1007.94 1008.04 1008.06 1008.28 1008.82 1009.64 1010.20 1011.36 1012.50 1012.71 1012.99 1013.28 1013.85 1014.32 1014.95 1015.10 1016.92 1017.91
1003.68 1004.11 1004.38 1004.89 1005.31 1005.82 1006.13 1006.22 1006.38 1006.46 1006.47 1006.61 1006.70 1006.83 1007.03 1007.21 1007.09 1007.21 1007.31 1007.19 1007.29 1007.71 1007.78 1007.95 1008.05 1007.97 1008.03 1008.24 1008.67 1009.39 1009.86 1010.49 1011.15 1012.33 1013.09 1013.52 1013.69 1014.47 1014.99 1015.76 1016.39 1017.57 1018.69
1003.67 1004.00 1004.48 1005.02 1005.50 1005.94 1006.16 1006.24 1006.33 1006.37 1006.53 1006.39 1006.62 1006.83 1007.08 1007.27 1007.23 1007.08 1007.09 1007.05 1007.37 1007.66 1007.96 1008.04 1008.02 1008.06 1008.23 1008.62 1009.20 1009.90 1010.51 1011.17 1011.99 1012.49 1013.42 1013.82 1014.56 1015.02 1015.75 1016.78 1017.40 1018.45 1019.48
1003.40 1003.88 1004.52 1004.99 1005.50 1005.94 1006.06 1006.30 1006.40 1006.41 1006.51 1006.49 1006.59 1006.79 1007.11 1007.28 1007.37 1007.19 1006.98 1007.25 1007.46 1007.86 1007.97 1007.96 1007.92 1008.08 1008.54 1009.02 1009.51 1010.29 1010.90 1011.53 1012.47 1013.14 1013.78 1014.38 1015.02 1015.86 1016.50 1017.12 1018.27 1019.33 1020.12
1003.29 1003.84 1004.46 1004.99 1005.50 1005.80 1006.03 1006.25 1006.30 1006.43 1006.52 1006.53 1006.73 1007.02 1007.45 1007.61 1007.95 1007.57 1007.37 1007.47 1007.74 1007.99 1008.11 1008.17 1008.23 1008.51 1008.95 1009.44 1009.89 1010.62 1011.27 1011.87 1012.70 1013.41 1014.04 1014.79 1015.58 1016.32 1017.04 1017.83 1018.53 1019.32 1020.24
1003.23 1003.75 1004.37 1004.95 1005.51 1005.77 1006.07 1006.26 1006.39 1006.45 1006.50 1006.58 1006.92 1007.42 1007.82 1008.24 1008.34 1007.98 1007.77 1007.73 1007.93 1008.09 1008.38 1008.75 1008.99 1009.12 1009.54 1009.91 1010.46 1010.91 1011.23 1011.69 1012.59 1013.30 1014.10 1014.91 1015.77 1016.48 1017.37 1018.05 1018.74 1019.62 1020.54
1003.21 1003.72 1004.35 1004.91 1005.37 1005.72 1006.03 1006.20 1006.48 1006.63 1006.69 1006.93 1007.39 1007.71 1008.21 1008.54 1008.44 1008.20 1007.95 1008.02 1008.07 1008.23 1008.45 1008.78 1009.24 1009.90 1010.21 1010.80 1011.20 1011.60 1012.03 1012.43 1012.71 1013.27 1014.32 1015.23 1015.89 1016.53 1017.13 1018.17 1018.91 1019.50 1020.00
1003.00 1003.58 1004.09 1004.86 1005.33 1005.65 1005.94 1006.32 1006.59 1006.81 1007.05 1007.36 1007.74 1007.95 1008.45 1008.96 1008.68 1008.40 1008.25 1008.34 1008.39 1008.54 1008.73 1009.19 1009.71 1010.36 1010.87 1011.17 1011.75 1012.33 1012.84 1013.31 1013.57 1013.99 1014.32 1015.30 1015.77 1016.64 1017.22 1017.85 1018.80 1019.51 1020.45
1002.79 1003.37 1003.99 1004.57 1005.12 1005.60 1006.01 1006.39 1006.68 1006.93 1007.20 1007.48 1007.82 1008.19 1008.62 1009.06 1008.88 1008.65 1008.51 1008.72 1008.90 1009.14 1009.33 1009.71 1010.18 1010.76 1011.28 1011.62 1012.05 1012.83 1013.61 1014.27 1014.70 1014.94 1015.26 1015.84 1016.68 1017.09 1017.41 1018.26 1019.16 1019.74 1020.73
1002.57 1003.22 1003.81 1004.31 1005.03 1005.64 1006.09 1006.47 1006.69 1006.91 1007.15 1007.39 1008.01 1008.27 1008.55 1009.03 1009.10 1008.90 1008.83 1009.01 1009.37 1009.63 1010.05 1010.43 1010.79 1011.31 1011.82 1012.16 1012.56 1013.27 1014.17 1014.92 1015.39 1015.98 1016.64 1017.11 1017.35 1017.92 1018.15 1018.55 1018.89 1019.58 1020.24
1002.19 1002.93 1003.68 1004.22 1004.85 1005.49 1006.00 1006.37 1006.76 1007.12 1007.43 1007.77 1008.21 1008.55 1008.66 1008.97 1009.29 1009.12 1009.17 1009.38 1009.77 1010.21 1010.67 1011.19 1011.71 1011.95 1012.46 1012.82 1013.19 1013.85 1014.37 1015.10 1015.74 1016.20 1016.95 1017.53 1017.90 1018.27 1018.50 1018.61 1018.73 1018.94 1019.46
1001.95 1002.82 1003.71 1004.36 1004.96 1005.53 1006.00 1006.50 1006.93 1007.25 1007.65 1008.13 1008.46 1008.85 1009.09 1009.29 1009.45 1009.37 1009.38 1009.67 1009.91 1010.41 1011.13 1011.70 1012.24 1012.51 1013.01 1013.35 1013.73 1014.29 1014.78 1015.20 1015.73 1016.37 1017.08 1017.86 1018.19 1018.21 1018.22 1018.23 1018.42 1018.63 1018.52
1001.99 1002.96 1003.79 1004.47 1005.08 1005.54 1006.01 1006.72 1007.10 1007.35 1007.73 1008.25 1008.61 1009.05 1009.35 1009.61 1009.76 1009.66 1009.67 1009.83 1010.16 1010.80 1011.30 1011.74 1012.26 1012.77 1013.36 1013.71 1014.07 1014.57 1015.19 1015.64 1016.10 1016.70 1017.13 1017.46 1017.53 1017.65 1017.79 1018.00 1018.02 1018.24 1018.47
1002.09 1002.84 1003.69 1004.42 1005.22 1005.72 1006.11 1006.64 1007.01 1007.37 1007.70 1008.05 1008.49 1008.90 1009.24 1009.62 1009.82 1009.88 1010.06 1010.31 1010.52 1011.15 1011.58 1012.27 1012.72 1013.28 1013.73 1014.00 1014.61 1014.93 1015.09 1015.33 1015.69 1016.17 1016.55 1016.83 1017.01 1017.28 1017.66 1017.97 1018.36 1018.52 1019.02
1001.93 1002.72 1003.53 1004.24 1005.03 1005.72 1006.21 1006.92 1006.89 1006.82 1006.70 1007.32 1007.74 1008.24 1008.78 1009.42 1009.67 1009.78 1010.00 1010.38 1010.89 1011.24 1011.93 1012.50 1013.01 1013.48 1013.96 1014.54 1014.84 1014.87 1014.92 1015.26 1015.55 1015.74 1016.15 1016.50 1016.77 1017.10 1017.47 1017.67 1018.05 1018.75 1019.05
1001.87 1002.54 1003.18 1004.00 1004.70 1005.48 1006.23 1007.02 1006.90 1006.87 1006.40 1006.60 1007.10 1007.66 1008.38 1008.68 1009.25 1009.85 1010.24 1010.56 1010.92 1011.40 1011.89 1012.48 1012.98 1013.25 1013.61 1014.02 1014.30 1014.55 1014.59 1014.79 1014.98 1015.38 1015.73 1016.06 1016.32 1016.73 1017.12 1017.55 1017.67 1018.24 1018.91
1001.37 1002.19 1002.84 1003.45 1004.20 1004.99 1005.75 1006.47 1007.03 1007.26 1007.07 1006.91 1006.83 1007.38 1007.98 1008.38 1009.24 1009.73 1010.18 1010.63 1011.08 1011.36 1011.77 1012.19 1012.45 1012.73 1012.90 1013.13 1013.47 1013.84 1013.96 1014.03 1014.27 1014.55 1014.79 1015.20 1015.50 1015.93 1016.39 1016.97 1017.48 1017.90 1018.23
1000.88 1001.58 1002.31 1002.97 1003.56 1004.29 1004.94 1005.54 1006.11 1006.77 1007.27 1007.53 1007.42 1007.59 1007.80 1008.38 1009.00 1009.63 1010.19 1010.95 1011.82 1011.77 1011.66 1011.80 1012.00 1012.22 1012.40 1012.59 1012.86 1013.11 1013.30 1013.37 1013.52 1013.62 1013.97 1014.16 1014.64 1015.12 1015.78 1016.33 1016.55 1016.86 1017.43
1000.52 1001.31 1001.80 1002.37 1002.98 1003.45 1004.04 1004.64 1005.18 1005.82 1006.39 1007.09 1007.85 1008.29 1008.80 1008.97 1009.22 1009.63 1009.77 1010.16 1010.79 1011.09 1011.07 1011.19 1011.25 1011.38 1011.64 1011.76 1011.90 1012.10 1012.34 1012.53 1012.53 1012.91 1013.28 1013.61 1013.87 1014.29 1014.72 1015.13 1015.70 1015.97 1016.54
999.89 1000.51 1001.25 1001.86 1002.49 1002.95 1003.31 1003.75 1004.40 1004.96 1005.66 1006.50 1007.20 1007.96 1008.92 1009.39 1009.79 1009.89 1009.84 1009.69 1009.89 1010.05 1010.21 1010.29 1010.32 1010.38 1010.36 1010.48 1010.86 1011.02 1011.36 1011.65 1011.78 1011.95 1012.31 1012.68 1013.00 1013.35 1013.72 1014.17 1014.68 1015.25 1015.88
999.32 1000.03 1000.53 1001.17 1001.71 1002.21 1002.57 1003.03 1003.29 1003.97 1004.60 1005.35 1006.18 1006.96 1007.25 1008.24 1008.70 1008.91 1009.07 1008.98 1008.89 1009.00 1009.12 1009.22 1009.30 1009.38 1009.47 1009.61 1009.63 1009.90 1010.23 1010.45 1010.91 1011.25 1011.49 1011.70 1012.06 1012.45 1012.74 1013.01 1013.58 1014.20 1014.76
998.42 999.14 999.92 1000.31 1000.87 1001.29 1001.71 1001.97 1002.35 1002.83 1003.41 1004.07 1004.98 1006.13 1006.70 1007.15 1007.33 1007.55 1007.72 1007.75 1007.69 1007.85 1007.99 1008.20 1008.41 1008.42 1008.41 1008.51 1008.76 1009.04 1009.08 1009.33 1009.68 1010.05 1010.40 1010.61 1010.92 1011.31 1011.79 1012.33 1012.72 1013.24 1014.06
998.25 998.40 998.92 999.41 999.82 1000.38 1000.85 1001.02 1001.29 1001.69 1002.15 1002.75 1003.40 1004.59 1006.00 1005.98 1005.97 1006.03 1006.15 1006.29 1006.60 1006.77 1006.95 1007.19 1007.34 1007.36 1007.27 1007.26 1007.36 1007.60 1007.93 1008.08 1008.16 1008.40 1008.88 1009.34 1009.71 1010.08 1010.60 1011.25 1011.82 1012.63 1013.69
998.85 998.52 998.56 998.86 998.98 999.40 999.86 1000.43 1000.39 1000.52 1000.88 1001.30 1002.01 1002.82 1003.58 1004.02 1004.22 1004.33 1004.41 1004.69 1005.02 1005.24 1005.50 1005.73 1005.90 1006.01 1006.20 1006.14 1006.01 1005.93 1006.11 1006.40 1006.72 1007.08 1007.49 1008.07 1008.60 1009.09 1009.50 1010.09 1010.65 1011.36 1012.32
999.31 998.77 998.61 998.51 998.47 998.76 998.91 999.28 999.58 999.67 999.92 1000.19 1000.65 1001.43 1001.92 1002.34 1002.60 1002.64 1002.80 1003.14 1003.51 1003.89 1004.05 1004.27 1004.45 1004.52 1004.63 1004.77 1004.96 1005.05 1005.09 1005.37 1005.52 1005.77 1006.15 1006.64 1007.18 1007.78 1008.37 1008.93 1009.66 1010.50 1011.66
999.79 999.24 998.54 998.34 998.19 997.80 997.93 998.17 998.54 998.69 998.81 999.06 999.47 999.86 1000.45 1000.86 1000.99 1001.19 1001.45 1001.82 1002.10 1002.34 1002.68 1002.99 1003.06 1003.17 1003.31 1003.46 1003.57 1003.81 1004.13 1004.42 1004.73 1004.87 1005.01 1005.57 1006.13 1006.64 1007.25 1007.84 1008.70 1009.58 1010.61
Wind_Speed
7 6 7 7 7 6 6 5 5 3 5 5 5 4 3 2 4 3 2 2 4 2 4 4 3 1 1 1 3 5 6 8 10 4 2 7 12 13 11 15 19 13 13
7 7 6 6 7 6 5 6 5 4 3 4 3 4 3 4 3 3 3 3 1 5 1 3 2 2 3 4 6 8 9 9 13 12 8 5 12 15 14 13 12 11 12
8 8 6 8 7 6 5 6 5 4 4 4 1 5 5 4 2 3 2 2 4 4 4 3 4 5 5 7 9 9 9 9 10 11 9 7 10 12 14 11 12 12 9
10 9 8 7 7 6 5 6 5 5 4 2 5 6 5 5 4 3 0 5 4 5 4 4 4 6 8 11 10 10 11 11 11 11 10 12 10 10 11 12 12 10 10
9 10 8 7 7 6 5 4 3 5 3 5 5 6 7 6 5 4 4 6 5 5 5 4 6 11 12 11 9 11 13 10 11 12 10 12 11 10 11 9 10 8 7
11 9 8 9 7 6 5 5 4 3 6 5 5 8 6 5 5 9 5 5 5 5 6 6 8 14 13 15 14 10 12 12 12 10 9 11 11 10 10 10 10 9 6
11 10 9 8 6 5 5 6 5 5 5 5 7 7 6 5 6 7 6 5 5 5 6 8 9 9 13 11 16 16 13 14 12 16 13 11 13 12 11 11 9 5 6
8 10 10 10 7 6 6 6 4 3 4 4 6 6 6 4 6 8 6 6 5 6 7 10 11 12 11 14 14 13 12 10 9 8 12 10 12 11 11 11 7 6 7
10 10 10 10 7 7 6 6 4 4 3 3 5 6 6 4 5 7 5 5 5 7 7 10 10 12 12 14 15 14 12 8 11 12 9 14 12 14 11 8 4 10 6
13 10 11 9 9 9 7 6 3 3 4 5 6 5 7 5 4 6 4 5 7 6 7 8 11 12 13 12 14 13 11 9 10 9 9 9 7 7 9 4 5 9 5
12 12 9 8 8 7 7 4 4 5 6 6 7 5 6 5 4 7 6 5 6 6 6 6 5 13 13 12 11 11 11 9 9 9 8 6 3 3 3 3 2 6 5
11 11 10 10 8 7 8 4 6 6 7 6 6 5 4 4 4 6 10 8 7 7 7 6 5 11 12 12 9 14 14 10 6 6 6 4 3 3 3 4 4 5 5
11 13 13 10 8 6 7 7 5 5 6 6 5 5 4 3 3 6 6 11 10 7 6 8 11 14 14 7 15 16 12 7 7 6 4 4 4 5 5 3 2 3 3
12 14 9 12 8 6 5 5 6 5 5 5 6 6 4 4 3 3 4 8 12 9 10 6 7 8 6 9 9 10 8 7 8 8 5 5 4 4 4 3 3 3 3
14 12 8 10 10 6 3 1 4 4 9 7 7 8 8 5 5 6 6 7 7 9 8 4 4 4 5 7 8 8 5 8 7 6 5 6 6 4 4 4 3 2 3
13 10 8 9 8 6 6 4 10 8 6 11 13 9 5 9 15 12 10 11 14 14 4 5 4 4 7 9 8 8 7 7 7 7 6 6 7 7 6 4 3 4 4
12 11 8 8 8 6 6 6 6 5 9 6 12 15 12 15 15 14 12 14 15 9 3 3 4 5 6 8 7 7 9 8 6 9 9 9 8 8 7 8 7 5 4
9 13 9 6 7 6 6 8 6 8 5 1 8 2 15 18 18 15 13 11 4 2 3 4 5 5 6 7 7 8 8 6 6 6 6 10 10 11 7 7 9 9 5
10 8 7 7 7 9 6 6 8 6 7 6 3 7 7 8 8 9 15 7 10 8 5 5 5 5 6 9 8 8 8 6 5 4 5 7 8 7 8 8 9 11 8
12 14 9 7 6 8 6 8 7 9 8 8 7 7 5 4 5 5 6 7 8 8 8 7 6 5 8 9 9 10 8 6 8 7 6 7 8 8 7 9 9 9 8
10 8 13 6 6 6 8 6 7 9 10 9 9 10 14 11 10 10 9 8 8 9 9 9 9 8 6 6 8 8 9 9 8 9 9 8 7 7 7 7 8 9 6
11 11 8 10 7 6 6 8 7 8 11 11 9 10 15 11 11 11 12 11 11 9 6 9 9 9 8 7 7 8 10 10 8 9 10 10 10 8 7 6 7 6 7
7 12 12 9 8 9 6 8 9 8 8 11 12 11 13 13 11 12 13 12 11 11 11 8 7 9 10 9 7 9 9 10 10 10 10 10 10 9 8 7 7 5 7
5 5 9 10 10 9 10 6 8 10 10 8 9 11 14 15 13 15 14 13 12 13 12 12 13 13 9 9 10 11 10 8 9 11 12 10 10 9 9 6 6 7 10
9 5 2 8 11 10 9 8 9 10 10 9 7 9 12 13 14 14 13 13 12 12 14 13 12 16 19 19 15 11 11 11 12 11 9 11 11 12 11 9 6 6 8
8 9 6 4 5 10 12 10 9 10 11 10 9 8 11 13 14 13 13 13 13 13 14 13 15 20 19 17 19 17 12 13 12 13 10 10 10 9 9 10 10 9 13
Wind_Direction
134 139 143 134 133 124 135 134 139 178 173 175 206 187 163 84 107 126 140 239 198 186 112 121 89 24 152 121 97 110 106 115 122 91 82 110 106 111 109 118 116 116 117
140 143 133 118 116 121 125 133 156 162 192 208 234 176 142 121 116 129 153 207 36 60 159 119 135 51 89 105 95 107 116 118 125 120 113 113 116 110 108 108 110 111 120
147 142 129 125 125 135 153 153 175 203 229 253 116 145 134 116 164 146 192 158 159 126 60 53 146 121 91 110 113 114 118 110 115 117 112 104 110 110 108 100 107 104 109
154 148 139 137 137 158 171 167 191 207 233 166 162 117 115 73 27 55 161 112 112 108 85 89 106 117 115 110 116 120 125 119 120 120 118 113 114 110 108 117 119 120 125
137 148 144 134 144 150 180 189 191 196 184 155 119 105 84 63 38 28 46 109 113 110 89 70 70 104 103 110 128 133 133 129 130 133 126 124 122 122 125 121 116 115 108
148 141 137 135 144 155 177 199 190 154 138 131 98 100 94 82 360 37 32 99 113 118 108 86 101 100 98 102 105 103 133 129 132 130 119 129 122 125 131 136 138 135 133
152 147 141 145 151 160 182 154 138 134 129 116 115 110 97 79 25 28 21 105 105 101 107 110 103 103 111 102 96 89 81 76 118 136 128 136 133 141 134 134 137 129 127
155 152 132 148 161 172 143 140 122 111 124 117 112 110 106 77 35 13 77 100 101 89 101 112 116 123 124 116 112 101 99 106 113 126 133 140 138 144 133 138 144 110 106
148 145 139 149 153 137 130 143 142 130 129 141 127 122 116 89 27 23 109 99 94 92 106 120 123 128 132 122 121 112 109 84 63 76 89 115 114 127 146 133 120 135 142
151 149 147 150 136 150 147 152 164 139 152 139 122 120 122 118 35 24 111 104 96 97 81 94 109 129 131 123 127 126 126 131 115 105 95 88 97 128 95 140 144 148 149
149 144 146 144 128 125 133 147 130 120 111 102 115 122 115 125 66 63 105 108 116 111 112 112 121 130 124 122 129 130 142 133 115 116 115 126 130 136 193 185 172 151 153
138 134 127 132 135 139 144 132 125 128 118 118 118 101 97 99 85 70 89 107 120 117 118 124 127 127 124 123 112 124 123 125 125 115 116 137 163 201 234 224 223 204 203
132 134 141 136 137 144 133 132 137 137 139 141 134 133 135 118 98 88 79 126 116 104 125 131 140 146 135 101 132 134 135 132 140 144 152 176 189 194 203 208 202 153 93
133 145 141 137 141 151 147 151 146 149 156 152 152 147 145 138 143 120 110 105 99 95 109 114 129 129 109 124 134 149 154 164 163 177 179 189 182 178 177 144 155 153 94
146 151 146 146 153 164 112 176 170 199 180 168 167 162 155 162 184 165 142 130 131 132 116 102 111 126 122 147 158 178 176 177 184 186 180 187 194 179 181 175 126 120 158
148 158 160 151 163 156 141 92 29 22 192 164 159 159 163 159 156 163 144 133 134 143 114 139 146 149 159 167 178 190 202 200 200 191 190 189 192 188 182 169 158 170 161
153 158 161 155 157 157 154 143 129 0 50 41 170 163 162 160 163 161 146 149 159 134 138 168 161 168 176 181 182 193 206 215 199 198 190 189 193 197 175 183 189 179 193
152 159 162 159 168 161 168 167 156 154 152 159 41 143 156 162 165 161 136 120 139 302 172 188 185 179 187 192 194 202 217 215 191 180 185 189 188 189 185 190 196 197 190
158 169 164 174 171 183 175 166 170 165 161 150 103 56 52 77 109 151 164 162 178 193 199 199 204 195 189 199 206 209 204 208 199 176 181 183 188 180 196 194 194 203 175
172 168 170 173 179 192 186 185 169 175 165 163 165 166 146 114 159 181 201 182 187 199 204 209 215 206 218 205 196 206 201 197 206 208 200 186 197 198 195 195 194 202 200
173 165 179 167 182 178 196 186 183 173 181 174 184 175 172 174 184 190 196 204 199 201 205 212 218 225 212 210 214 200 203 210 201 204 208 212 197 196 204 197 195 203 173
172 179 178 188 192 194 189 190 189 180 185 187 182 180 178 188 187 192 200 207 212 210 199 207 217 224 224 209 198 211 214 205 194 191 200 207 210 206 186 192 199 189 146
195 179 188 189 188 199 198 198 194 191 185 186 189 173 181 199 197 199 202 206 208 211 215 214 205 218 223 222 210 203 205 215 211 201 200 199 200 203 195 190 193 158 157
354 223 193 201 199 200 205 201 206 195 196 191 177 176 186 197 202 206 206 206 206 211 210 213 221 223 221 219 222 223 212 198 195 204 196 197 201 198 201 189 186 166 167
340 327 288 206 201 206 209 199 201 203 201 202 188 178 191 196 204 208 207 207 208 209 212 212 216 222 224 228 230 218 216 201 209 198 194 195 196 193 198 200 174 154 142
328 332 318 357 240 214 207 208 202 201 202 202 201 183 187 196 204 208 209 209 211 212 212 214 219 218 220 224 225 224 210 207 206 204 195 193 197 198 188 194 175 160 160